Flag Weather past 2 weeks in Kopervik, Norway

Now
41 °F

Overcast.


Feels Like: 35 °F
Forecast: 41 / 46 °F
Wind: 9 mph from Southeast

Location: Haugesund / Karmoy

Current Time: Nov 21, 2014 at 7:15:35 PM

Latest Report: Nov 21, 2014 at 6:20 PM


Visibility: N/A

Pressure: 30.27 "Hg

Humidity: 81%

Dew point: 36 °F

Location of KopervikLocation

Historic Weather in Kopervik — Graph

°F

Kopervik temperature yesterday

Maximum temperature yesterday: 43 °F (at 2:50 AM)
Minimum temperature yesterday: 41 °F (at 12:20 AM)
Average temperature yesterday: 42 °F

Past Weeks' High & Low Weather Summary

 TemperatureHumidityPressure
High54 °F (Nov 9, 5:20 AM)100% (Nov 9, 12:20 PM)30.48 "Hg (Nov 9, 12:20 PM)
Low37 °F (Nov 11, 6:50 AM)47% (Nov 15, 11:50 PM)29.30 "Hg (Nov 8, 6:20 AM)
Average47 °F71%29.91 "Hg
* Reported Nov 6 5:20 PM — Nov 21 5:50 PM, Kopervik, Weather by CustomWeather, © 2014

Note: Actual official high and low records may vary slightly from our data, if they occured in-between our weather recording intervals... More about our weather records

Advertising

Kopervik weather history for previous 24 hours

 ConditionsComfort  
Time TempWeatherWind HumidityBarometerVisibility
5:50 PM
Nov 21
41 °FMostly cloudy.10 mph81%30.27 "HgN/A
5:20 PM41 °FSprinkles. Mostly cloudy.12 mph81%30.27 "HgN/A
4:50 PM41 °FSprinkles. Passing clouds.10 mph81%30.30 "HgN/A
4:20 PM41 °FPassing clouds.10 mph81%30.27 "HgN/A
3:50 PM41 °FPartly sunny.10 mph81%30.30 "HgN/A
3:20 PM41 °FOvercast.10 mph87%30.30 "HgN/A
2:50 PM41 °FLight rain. Overcast.9 mph87%30.30 "HgN/A
2:20 PM41 °FLight rain. Overcast.9 mph87%30.30 "HgN/A
1:50 PM41 °FLight rain. Mostly cloudy.8 mph87%30.33 "HgN/A
1:20 PM41 °FLight rain. Mostly cloudy.10 mph87%30.33 "HgN/A
12:50 PM41 °FLight rain. Mostly cloudy.13 mph87%30.33 "HgN/A
12:20 PM41 °FLight rain. Mostly cloudy.10 mph87%30.33 "HgN/A
11:50 AM41 °FLight rain. Mostly cloudy.12 mph87%30.33 "HgN/A
11:20 AM41 °FLight rain. Mostly cloudy.14 mph87%30.33 "HgN/A
10:50 AM41 °FLight rain. Mostly cloudy.13 mph87%30.33 "HgN/A
10:20 AM41 °FLight rain. Mostly cloudy.12 mph87%30.33 "HgN/A
9:50 AM39 °FDrizzle. Broken clouds.12 mph87%30.33 "HgN/A
9:20 AM39 °FLight rain. Broken clouds.10 mph87%30.33 "HgN/A
8:50 AM39 °FLight rain. Broken clouds.9 mph87%30.33 "HgN/A
8:20 AM39 °FRain. Partly cloudy.9 mph87%30.33 "HgN/A
7:50 AM39 °FLight rain. Partly cloudy.12 mph87%30.33 "HgN/A
7:20 AM39 °FLight rain. Partly cloudy.10 mph87%30.33 "HgN/A
6:50 AM39 °FLight rain. Passing clouds.10 mph87%30.33 "HgN/A
6:20 AM39 °FLight rain. Passing clouds.12 mph87%30.33 "HgN/A
5:50 AM39 °FLight rain. Passing clouds.9 mph93%30.33 "HgN/A
5:20 AM39 °FLight rain. Partly cloudy.10 mph93%30.36 "HgN/A
4:50 AM39 °FLight rain. Mostly cloudy.9 mph93%30.36 "HgN/A
4:20 AM39 °FLight rain. Passing clouds.12 mph93%30.36 "HgN/A
3:50 AM39 °FLight rain. Passing clouds.12 mph93%30.36 "HgN/A
3:20 AM39 °FLight rain. Overcast.13 mph93%30.36 "HgN/A
2:50 AM39 °FLight rain. Mostly cloudy.14 mph93%30.36 "HgN/A
2:20 AM39 °FLight rain. Overcast.14 mph93%30.39 "Hg5 mi
1:50 AM39 °FLight rain. Mostly cloudy.14 mph93%30.39 "Hg4 mi
1:20 AM39 °FLight rain. Overcast.13 mph93%30.39 "Hg4 mi
12:50 AM41 °FLight rain. Mostly cloudy.12 mph87%30.39 "Hg6 mi
12:20 AM41 °FLight rain. Mostly cloudy.10 mph87%30.39 "HgN/A
11:50 PM
Nov 20
41 °FLight rain. Mostly cloudy.10 mph87%30.42 "Hg6 mi
11:20 PM41 °FLight rain. Overcast.9 mph87%30.42 "HgN/A
10:50 PM41 °FLight rain. Passing clouds.8 mph87%30.42 "HgN/A
10:20 PM41 °FLight rain. Passing clouds.9 mph87%30.42 "HgN/A
9:50 PM41 °FLight rain. Passing clouds.8 mph87%30.42 "HgN/A
9:20 PM41 °FLight rain. Passing clouds.9 mph87%30.42 "HgN/A
8:50 PM41 °FLight rain. Passing clouds.9 mph87%30.42 "HgN/A
8:20 PM41 °FPassing clouds.9 mph87%30.42 "HgN/A
7:50 PM41 °FPassing clouds.9 mph87%30.42 "HgN/A
7:20 PM41 °FPassing clouds.8 mph87%30.42 "HgN/A
Weather by CustomWeather, © 2014

See weather overviewHow to use our weather pages